Home   Weather   Esslingen   Past weeks

Flag for Germany Past Weather in Esslingen, Baden-Württemberg, Germany — Yesterday and Last 2 Weeks

Now
43 °F

Clear.


Feels Like: 33 °F
Forecast: 35 / 47 °F
Wind: 23 mph from West

Location: Stuttgart-Echterdingen

Current Time: Feb 24, 2017 at 4:49:40 am

Latest Report: Feb 24, 2017 at 3:50 am


Visibility: 10 mi

Pressure: 29.71 "Hg

Humidity: 61%

Dew Point: 30 °F

Location of EsslingenLocation

Past Weather in Esslingen — Graph

°F

Esslingen Temperature Yesterday

Maximum temperature yesterday: 64 °F (at 2:20 pm)
Minimum temperature yesterday: 41 °F (at 7:20 am)
Average temperature yesterday: 52 °F

High & Low Weather Summary for the Past Weeks

 TemperatureHumidityPressure
High64 °F (Feb 23, 2:20 pm)100% (Feb 11, 3:20 am)30.54 "Hg (Feb 11, 3:20 am)
Low23 °F (Feb 11, 5:20 am)27% (Feb 23, 2:50 pm)29.50 "Hg (Feb 23, 3:50 pm)
Average40 °F80%30.18 "Hg
* Reported Feb 9 3:20 am — Feb 24 3:50 am, Esslingen, Weather by CustomWeather, © 2017

Note: Actual official high and low records may vary slightly from our data, if they occured in-between our weather recording intervals... More about our weather records

Advertising

Esslingen Weather History for the Previous 24 Hours

Scroll right to see more
 ConditionsComfort  
Time TempWeatherWind HumidityBarometerVisibility
3:50 am
Fri, Feb 24
43 °FClear.23 mph61%29.71 "Hg10 mi
3:20 am43 °FPartly cloudy.30 mph66%29.68 "HgN/A
2:50 am45 °FLight rain. Partly cloudy.28 mph61%29.68 "HgN/A
2:20 am45 °FPartly cloudy.31 mph61%29.68 "HgN/A
1:50 am45 °FPartly cloudy.22 mph61%29.65 "HgN/A
1:20 am45 °FClear.16 mph66%29.62 "Hg10 mi
12:50 am45 °FClear.22 mph66%29.62 "Hg10 mi
12:20 am45 °FClear.25 mph66%29.59 "Hg10 mi
11:50 pm
Thu, Feb 23
45 °FPartly cloudy.21 mph66%29.59 "HgN/A
11:20 pm45 °FPassing clouds.25 mph76%29.59 "HgN/A
10:50 pm43 °FSprinkles. Passing clouds.35 mph81%29.59 "HgN/A
10:20 pm50 °FSprinkles. Partly cloudy.24 mph71%29.56 "HgN/A
9:50 pm50 °FPartly cloudy.15 mph67%29.56 "HgN/A
9:20 pm50 °FPassing clouds.14 mph67%29.56 "HgN/A
8:50 pm52 °FLight rain. Partly cloudy.21 mph62%29.56 "HgN/A
8:20 pm52 °FClear.24 mph62%29.56 "Hg10 mi
7:50 pm54 °FPassing clouds.28 mph47%29.53 "HgN/A
7:20 pm57 °FPassing clouds.17 mph33%29.50 "HgN/A
6:50 pm57 °FClear.17 mph31%29.50 "Hg10 mi
6:20 pm59 °FPassing clouds.18 mph29%29.50 "HgN/A
5:50 pm59 °FPassing clouds.16 mph29%29.50 "HgN/A
5:20 pm61 °FPassing clouds.16 mph27%29.50 "HgN/A
4:50 pm61 °FPassing clouds.17 mph27%29.50 "HgN/A
4:20 pm63 °FPassing clouds.20 mph27%29.50 "HgN/A
3:50 pm63 °FPassing clouds.17 mph27%29.50 "HgN/A
3:20 pm63 °FPassing clouds.20 mph27%29.53 "HgN/A
2:50 pm63 °FPassing clouds.17 mph27%29.53 "HgN/A
2:20 pm64 °FPassing clouds.22 mph28%29.56 "HgN/A
1:50 pm63 °FPassing clouds.17 mph30%29.56 "HgN/A
1:20 pm63 °FPassing clouds.20 mph32%29.59 "HgN/A
12:50 pm61 °FPassing clouds.18 mph34%29.62 "HgN/A
12:20 pm61 °FPassing clouds.18 mph36%29.62 "HgN/A
11:50 am59 °FPassing clouds.15 mph39%29.65 "HgN/A
11:20 am59 °FPassing clouds.14 mph39%29.65 "HgN/A
10:50 am57 °FPassing clouds.14 mph41%29.68 "HgN/A
10:20 am55 °FPassing clouds.10 mph51%29.68 "HgN/A
9:50 am54 °FSunny.5 mph54%29.71 "Hg10 mi
9:20 am48 °FPassing clouds.5 mph76%29.71 "HgN/A
8:50 am46 °FPassing clouds.3 mph82%29.74 "HgN/A
8:20 am43 °FSunny.5 mph87%29.77 "Hg10 mi
7:50 am43 °FSunny.1 mph81%29.77 "Hg10 mi
7:20 am41 °FSunny.6 mph87%29.80 "Hg10 mi
6:50 am43 °FPassing clouds.7 mph81%29.80 "HgN/A
6:20 am43 °FPassing clouds.7 mph81%29.83 "HgN/A
5:50 am45 °FPassing clouds.8 mph76%29.83 "HgN/A
5:20 am46 °FPassing clouds.12 mph76%29.83 "HgN/A
4:50 am46 °FPassing clouds.10 mph76%29.83 "HgN/A
4:20 am46 °FPassing clouds.12 mph76%29.83 "HgN/A
Weather by CustomWeather, © 2017

See weather overviewHow to use our weather pages